Location: Long Barn
(38.0930°N, 120.1344°W)
Time: 01:19:05
(UTC+00:00)

BlueWalker 3 - Pass Details

Date: 22 January 2026
Orbit: 450 x 461 km, 53.2° (Epoch: 11 February)

Event Time Altitude Azimuth Distance (km) Brightness Sun altitude
Rises 02:42:23 0° 244° (WSW) 2,446 6.9 -17.8°
Reaches altitude 10° 02:44:35 10° 251° (WSW) 1,576 5.7 -18.2°
Maximum altitude 02:47:57 41° 323° (NW) 670 2.7 -18.9°
Enters shadow 02:49:04 31° 7° (N) 821 2.8 -19.1°
